Regional Weather Roundup
Issued by NWS Sterling, VA

Home | Current Version | Previous Version | Graphics & Text | Print | Product List | Glossary On
Versions: 1 2 3 4 5 6 7 8 9 10 11 12 13 14 15 16 17 18 19 20 21 22 23 24 25 26 27 28 29 30 31 32 33 34 35 36 37 38 39 40 41 42 43 44 45 46 47 48 49 50
000
ASUS41 KLWX 051610
RWRLWX

REGIONAL WEATHER ROUNDUP
NATIONAL WEATHER SERVICE BALTIMORE MD/WASHINGTON DC
1100 AM EST THU MAR 05 2015

Note: "FAIR" indicates few or no clouds below 12,000 feet
with no significant weather and/or obstructions to visibility.
 TC=TEMPERATURE CELSIUS

 * =Non NWS site. Station does not report precipitation (e.g. rain,
    snow, etc.), thunder, or fog.

DCZ001-MDZ009-015-VAZ040>042-051-053>054-051700-
WASHINGTON METRO

CITY           SKY/WX    TMP DP  RH WIND       PRES   REMARKS
WASHINGTON NAT LGT SNOW  34  28  80 N15       30.18R VSB 3/4 WCI  24
DULLES         SNOW      28  26  92 N10       30.18R VSB 1/2 WCI  19
ANDREWS AFB    LGT SNOW  32  30  93 NW9       30.15R FOG     WCI  24
FT BELVOIR     LGT SNOW  32  28  86 NW8       30.18R FOG     WCI  25
QUANTICO       LGT SNOW  32  29  88 N17G25    30.19R FOG     WCI  21
COLLEGE PARK*  PTSUNNY   32  32 100 N7        30.17R VSB 3/4
LEESBURG*      SNOW      30  30 100 N10       30.19R VSB 1/2 WCI  21
MANASSAS*      LGT SNOW  30  30 100 N10       30.19R VSB 1   WCI  21
GAITHERSBURG*  CLOUDY    28  27  93 NW6       30.18S VSB 1/2

$$

MDZ006>007-011-014-051700-
BALTIMORE METRO

CITY           SKY/WX    TMP DP  RH WIND       PRES   REMARKS
BWI AIRPORT    SNOW      31  29  92 NW12      30.14R VSB 1/2 WCI  22
MD SCIENCE CTR   N/A     32  29  88 MISG      30.14R
MARTIN STATE   SNOW      34  32  93 W6        30.17R VSB 1/2
ANNAPOLIS      LGT SNOW  32  30  92 N8        30.15R VSB 3/4 WCI  25
FORT MEADE*      N/A     32  30  93 CALM      30.19R VSB 1/2

$$

MDZ012-015-019>023-051700-
MARYLAND EASTERN SHORE

CITY           SKY/WX    TMP DP  RH WIND       PRES   REMARKS
OCEAN CITY     LGT RAIN  35  33  92 N12G18    30.10R FOG     WCI  27
SALISBURY      LGT RAIN  38  33  82 N10       30.09R
BAY BRIDGE AP* MIX PCPN  32  32 100 NW8       30.16R VSB 3/4 WCI  25
CAMBRIDGE*     CLOUDY    34  32  93 N9        30.11S WCI  26
EASTON*        LGT SNOW  34  34 100 N6        30.17R FOG

$$

MDZ017>025-051700-
SOUTHERN MARYLAND

CITY           SKY/WX    TMP DP  RH WIND       PRES   REMARKS
PATUXENT RIVER LGTSLEET  32  29  88 N15       30.12R FOG     WCI  22
ST INIGOES     MIX PCPN  33  29  85 VRB6      30.11S FOG
LEONARDTOWN*   CLOUDY    32  32 100 N6        30.14F

$$

MDZ003>005-051700-
NORTH CENTRAL MARYLAND

CITY           SKY/WX    TMP DP  RH WIND       PRES   REMARKS
FREDERICK*     SNOW      30  27  86 N6        30.21R VSB 1/2
HAGERSTOWN APT SNOW      25  22  88 NW12      30.17R VSB 1/2 WCI  14
WESTMINSTER*   SNOW      27  25  93 NW7       30.14S VSB 1/4

$$

MDZ501>502-051700-
WESTERN MARYLAND

CITY           SKY/WX    TMP DP  RH WIND       PRES   REMARKS
OAKLAND*       FOG       14 N/A N/A NW6       30.04F VSB 1/2
CUMBERLAND*    CLOUDY    25  21  86 CALM      30.25R VSB 1/2

$$

VAZ025>031-051700-
SHENANDOAH VALLEY

CITY           SKY/WX    TMP DP  RH WIND       PRES   REMARKS
WINCHESTER*    SNOW      30  25  80 NW8       30.18R VSB 1/2 WCI  23
FRONT ROYAL*   CLOUDY    28  27  93 NW6       30.17R VSB 1/4
LURAY*         SNOW      30  30 100 N5        30.16R VSB 1/4
NEW MARKET*    CLOUDY    28  26  95 NE7       30.15R VSB 1/4
STAUNTON*      LGT SNOW  29  27  92 NE10      30.13S VSB 1   WCI  20
WAYNESBORO*    CLOUDY    28  26  96 N10G20    30.09S VSB 1   WCI  18

$$

WVZ021-048>050-054>055-051700-
EASTERN WEST VIRGINIA PANHANDLE

CITY           SKY/WX    TMP DP  RH WIND       PRES   REMARKS
MARTINSBURG    HVY SNOW  26  22  84 NW14G22   30.20S VSB 1/4 WCI  14
PETERSBURG*    NOT AVBL

$$

VAZ036>039-050-051700-
CENTRAL FOOTHILLS

CITY           SKY/WX    TMP DP  RH WIND       PRES   REMARKS
CHARLOTTESVILL MIX PCPN  32  30  92 NE8       30.12R VSB 3/4 WCI  25
CULPEPER*      LGT SNOW  30  28  93 N10G16    30.19R VSB 3/4 WCI  21
ORANGE*        LGT SNOW  32  32 100 N10G16    30.16R WCI  24
GORDONSVILLE*  CLOUDY    31  28  90 N8G20     30.14R FOG     WCI  23
WARRENTON*     LGT SNOW  31  31 100 N13       30.18R VSB 1   WCI  22

$$

VAZ055>057-051700-
NORTH AND CENTRAL PIEDMONT

CITY           SKY/WX    TMP DP  RH WIND       PRES   REMARKS
FREDERICKSBRG* LGT SNOW  33  33  99 N12G20    30.15R WCI  24
STAFFORD*      LGT SNOW  31  32 100 CALM      30.21R

$$

NCZ024-NYZ072-PAZ021-071-VAZ022-071-051700-
OTHER REGIONAL OBSERVATIONS

CITY           SKY/WX    TMP DP  RH WIND       PRES   REMARKS
NEW YORK CITY  SNOW      26  24  92 VRB3      30.14F VSB 1/4
PHILADELPHIA   HVY SNOW  29  27  92 N15       30.16R VSB 1/4 WCI  18
PITTSBURGH     CLOUDY    16   5  62 N10       30.24R WCI   4
ROANOKE        LGT RAIN  39  36  89 NE6       30.03F
RICHMOND       SLEET     36  32  87 NE14      30.10R FOG     WCI  27
RALEIGH        RAIN      46  42  86 NE15G25   29.96R FOG

$$

ANZ530>537-051700-
MARINE OBSERVATIONS

STATION/POSITION TIME  TEMP    WIND        PRES
                       AIR SEA DIR/SP/G
                 (UTC) (F)     (DEG/KT/KT) (MB)
THOMAS PT LIGHT  1600   31 32  350/ 14/ 16 1021.9R
BALT KEY BRIDGE  1500   31     340/  8/ 10 1020.0R
COVE POINT       1500   31      20/ 17/ 22 1019.3R
LEWISETTA        1500   34 34   20/  7/ 12 1020.0R
SOLOMONS ISLAND  1500      33                N/A

$$




USA.gov is the U.S. government's official web portal to all federal, state and local government web resources and services.